Find Starlink 33658

NORAD ID: 63384 Int'l Des: 2025-063 Owner: SPXS Country: US Constellation: starlink operational
LEOCIRCULAR

Live Position

Loading 3D Globe...

About Starlink 33658

Description loading...

Upcoming Passes

Passes for default location (London). Set your location on the main map for personalized predictions.

Altitude History

Loading altitude history...

Two-Line Element Set

1 63384U 25063X 26106.54748648 .00016999 00000-0 58449-3 0 9998
2 63384 53.1597 236.7485 0001433 103.3229 256.7931 15.30213986 60559
Epoch: Apr 16, 2026 • Age: 8 hours

Current Status

Altitude 475.8 km
Velocity 7.63 km/s
Sub-Earth Point 3.40°N, 77.81°E
Launch Date Mar 26, 2025
Age 1 years
Type internet

Technical Details

Classification Payload
Mass 575.00 kg
Dry Mass 530.00 kg
Total Mass 575.00 kg
Length 0.30 m
Diameter 4.10 m
Span 29.00 m
Shape Box + pan
Manufacturer SPXS
Bus Type Starlink V2MO
Phase Status In Orbit
Owner/State SPXS/US

Most Searched